TimeMDT,TemperatureF,Dew PointF,Humidity,Sea Level PressureIn,VisibilityMPH,Wind Direction,Wind SpeedMPH,Gust SpeedMPH,PrecipitationIn,Events,Conditions,WindDirDegrees,DateUTC
12:53 AM,61.0,54.0,78,29.81,10.0,NE,5.8,-,N/A,,Clear,50,2013-06-26 06:53:00
1:53 AM,61.0,54.0,78,29.82,10.0,Calm,Calm,-,N/A,,Clear,0,2013-06-26 07:53:00
2:53 AM,59.0,54.0,83,29.82,10.0,Calm,Calm,-,N/A,,Clear,0,2013-06-26 08:53:00
3:53 AM,57.0,53.1,87,29.83,10.0,WNW,4.6,-,N/A,,Clear,300,2013-06-26 09:53:00
4:53 AM,55.0,52.0,89,29.85,10.0,Calm,Calm,-,N/A,,Clear,0,2013-06-26 10:53:00
5:53 AM,55.9,52.0,87,29.86,10.0,Calm,Calm,-,N/A,,Clear,0,2013-06-26 11:53:00
6:53 AM,57.9,53.1,84,29.88,10.0,Calm,Calm,-,N/A,,Clear,0,2013-06-26 12:53:00
7:53 AM,66.0,50.0,56,29.88,10.0,Calm,Calm,-,N/A,,Clear,0,2013-06-26 13:53:00
8:53 AM,72.0,50.0,46,29.88,10.0,Calm,Calm,-,N/A,,Clear,0,2013-06-26 14:53:00
9:53 AM,79.0,51.1,38,29.87,10.0,SSW,3.5,-,N/A,,Clear,200,2013-06-26 15:53:00
10:53 AM,84.9,48.0,28,29.86,10.0,Calm,Calm,-,N/A,,Clear,0,2013-06-26 16:53:00
11:53 AM,88.0,48.0,25,29.85,10.0,Variable,4.6,-,N/A,,Clear,0,2013-06-26 17:53:00
12:53 PM,91.0,45.0,20,29.84,10.0,South,5.8,-,N/A,,Clear,170,2013-06-26 18:53:00
1:53 PM,93.9,46.0,19,29.82,10.0,South,8.1,-,N/A,,Clear,180,2013-06-26 19:53:00
2:53 PM,93.9,44.1,18,29.81,10.0,South,5.8,-,N/A,,Clear,190,2013-06-26 20:53:00
3:53 PM,91.0,46.9,22,29.82,10.0,ESE,6.9,-,N/A,,Clear,120,2013-06-26 21:53:00
4:53 PM,93.0,46.9,20,29.81,10.0,ESE,6.9,-,N/A,,Clear,120,2013-06-26 22:53:00
5:53 PM,93.0,46.9,20,29.79,10.0,ESE,5.8,-,N/A,,Clear,120,2013-06-26 23:53:00
6:53 PM,89.1,46.9,23,29.80,10.0,SE,5.8,-,N/A,,Clear,130,2013-06-27 00:53:00
7:53 PM,86.0,48.9,28,29.80,10.0,SE,5.8,-,N/A,,Clear,140,2013-06-27 01:53:00
8:53 PM,82.9,51.1,33,29.80,10.0,Calm,Calm,-,N/A,,Clear,0,2013-06-27 02:53:00
9:53 PM,75.9,53.1,45,29.83,10.0,East,3.5,-,N/A,,Clear,100,2013-06-27 03:53:00
10:53 PM,75.0,52.0,44,29.84,10.0,Variable,3.5,-,N/A,,Clear,0,2013-06-27 04:53:00
11:53 PM,70.0,53.1,55,29.85,10.0,NNE,16.1,-,N/A,,Clear,30,2013-06-27 05:53:00